sat.trackr.live / text

‹ back to catalog

STARLINK-33589

NORAD 62759 · 2025-015B

PAYLOAD ACTIVE UNKNOWN

§ Identity

Operator
Country
US
Launch date
2025-01-21
Launch site
AFWTR
Launch vehicle
Mass (kg)
RCS (m²)

Purposes: comms

External: N2YO · Heavens-Above · Gunter

§ Orbital elements

Epoch: 2026-09-21T20:38:25.783296Z

Period
94.01 min
Inclination
53.1580°
Eccentricity
0.0001498
Mean motion
15.31712477 rev/d
Perigee alt
469.7 km
Apogee alt
471.7 km
Semi-major
6,848.8 km
B*
3.2509e-4
RAAN
129.9963°
Arg perigee
110.1210°
Mean anomaly
249.9953°
Rev number
9,377

§ Raw data

STARLINK-335891 62759U 25015B   26264.86002064  .00009740  00000+0  32509-3 0  99992 62759  53.1580 129.9963 0001498 110.1210 249.9953 15.31712477 93775

JSON: /api/v1/satellites/62759 · /tle

For live sub-satellite position, see the globe view (requires WebGL).

§ Visibility from observer

Set your observer location to see the next 7 days of passes ≥ 10°. The values pass through the URL so the page stays shareable.

No JS? Fill the form by hand. The geolocation button needs JavaScript.